[[{"header":{"parameterUnit":"m.s-1","parameterCategory":1,"la1":30.2991,"la2":30.254,"lo1":-89.0895,"lo2":-89.0444,"dy":0.0017,"dx":0.0017,"nx":28,"ny":28,"refTime":"2024-05-08T09:00:00:Z","depth":0,"parameterNumber":2,"parameterNumberName":"U-component_of_WINDS"},"data":[0,0,0,0,0,0,0,0,0,0,0,0,0,0,0,0,0,0,0,0,0,0,0,0,0,0,0,0,0,0,0,0,0,0,0,0,0,0,0,0,0,0,0,0,0,0,0,0,0,0,0,0,0,0,0,0,0,0,-1.2622,-1.2623,0,-1.2684,-1.2685,-1.2686,-1.2697,-1.2697,-1.2696,-1.2696,-1.2761,-1.2763,-1.2766,0,0,0,0,0,0,0,0,0,0,0,0,0,-1.2517,-1.2519,-1.2622,-1.2623,-1.2624,-1.2684,-1.2685,-1.2686,-1.2697,-1.2697,-1.2696,-1.2695,-1.2761,-1.2763,-1.2766,0,0,0,0,0,0,0,0,0,0,0,0,0,-1.2569,-1.2519,-1.2622,-1.2637,-1.2639,-1.2684,-1.2685,-1.2686,-1.2697,-1.2697,-1.2696,-1.2695,-1.276,-1.2763,-1.2766,-1.2802,0,0,-1.2776,-1.2778,0,0,0,0,0,0,0,0,-1.2566,-1.2573,-1.2634,-1.2636,-1.2638,-1.2682,-1.2672,-1.2725,-1.2697,-1.2675,-1.2696,-1.2695,-1.2736,-1.2741,-1.2754,-1.2805,-1.2808,-1.2777,-1.2779,-1.278,-1.2781,0,0,0,0,0,0,0,-1.2563,-1.2571,-1.2647,-1.2635,-1.2637,-1.2641,-1.2648,-1.2682,-1.2709,-1.2677,-1.2678,-1.2685,-1.2737,-1.2751,-1.2756,-1.2809,-1.2777,-1.278,-1.2782,-1.2783,-1.2895,-1.2895,0,0,0,0,0,0,-1.2556,-1.2567,-1.2645,-1.2649,-1.2599,-1.2644,-1.2651,-1.2669,-1.2709,-1.2714,-1.2686,-1.2685,-1.2746,-1.2752,-1.2758,-1.2804,-1.278,-1.2783,-1.2785,-1.2894,-1.2895,-1.2896,0,0,0,0,0,0,-1.2554,-1.2563,-1.2643,-1.2608,-1.2619,-1.2646,-1.2666,-1.267,-1.2685,-1.2715,-1.272,-1.2695,-1.2745,-1.2754,-1.2791,-1.2807,-1.2785,-1.2788,-1.2892,-1.2894,-1.2895,-1.2895,0,0,0,0,0,0,-1.2551,-1.2562,-1.2575,-1.2609,-1.2621,-1.2674,-1.2667,-1.2672,-1.269,-1.269,-1.2725,-1.2731,-1.2745,-1.2786,-1.2795,-1.2811,-1.279,-1.2891,-1.2893,-1.2895,-1.2894,-1.2897,-1.2899,0,0,0,0,0,-1.2547,-1.2573,-1.2576,-1.2585,-1.2637,-1.2674,-1.2681,-1.2697,-1.2691,-1.2705,-1.2725,-1.2729,-1.2803,-1.279,-1.28,-1.2817,-1.289,-1.2893,-1.2895,-1.2893,-1.2896,-1.2899,0,0,0,0,0,0,-1.2541,-1.2577,-1.2581,-1.2618,-1.2643,-1.2676,-1.2694,-1.27,-1.2727,-1.2726,-1.2746,-1.2754,-1.2791,-1.2808,-1.2792,-1.2855,-1.2847,-1.2851,-1.2842,-1.2845,-1.2848,-1.2843,-1.2793,0,0,0,0,0,-1.2544,-1.257,-1.2601,-1.2631,-1.2643,-1.2667,-1.2683,-1.2693,-1.272,-1.2731,-1.2753,-1.278,-1.2809,-1.2828,-1.2857,-1.2897,-1.2905,-1.2913,-1.2916,-1.2917,-1.2921,-1.2945,-1.2949,-1.2903,-1.2903,-1.2903,0,0,-1.2551,-1.2574,-1.2589,-1.263,-1.2651,-1.2678,-1.2675,-1.2704,-1.2725,-1.2736,-1.2773,-1.279,-1.2821,-1.286,-1.2879,-1.2876,-1.2936,-1.292,-1.2921,-1.2924,-1.2947,-1.2951,-1.2955,-1.2904,-1.2904,-1.2904,0,0,-1.2577,-1.2596,-1.2624,-1.2645,-1.2675,-1.2691,-1.2698,-1.273,-1.2742,-1.2779,-1.2788,-1.2814,-1.2864,-1.2886,-1.2903,-1.2939,-1.2945,-1.2948,-1.296,-1.2983,-1.2987,-1.299,-1.3004,-1.3008,-1.2951,-1.2951,-1.2951,0,-1.2581,-1.2622,-1.2638,-1.2667,-1.2685,-1.2695,-1.2724,-1.2744,-1.2783,-1.2796,-1.2791,-1.2855,-1.2876,-1.2922,-1.293,-1.2944,-1.2953,-1.2944,-1.2985,-1.2988,-1.2992,-1.3005,-1.301,-1.2952,-1.2952,-1.2952,-1.2952,0,-1.2627,-1.2655,-1.2674,-1.2711,-1.2732,-1.276,-1.2782,-1.2801,-1.281,-1.2826,-1.2865,-1.2891,-1.2926,-1.2937,-1.2946,-1.2984,-1.2981,-1.2981,-1.2973,-1.2996,-1.3009,-1.3014,-1.2952,-1.2952,-1.2952,-1.2952,0,0,-1.2651,-1.2696,-1.2703,-1.272,-1.2755,-1.2778,-1.2808,-1.2841,-1.2858,-1.2885,-1.2911,-1.2954,-1.2954,-1.2974,-1.2985,-1.3005,-1.3033,-1.3002,-1.3004,-1.3008,-1.3078,-1.3079,-1.3084,-1.3037,-1.3038,-1.3039,-1.3076,0,-1.2682,-1.2734,-1.275,-1.2795,-1.2822,-1.2832,-1.2859,-1.2884,-1.29,-1.2926,-1.2945,-1.2975,-1.2972,-1.2985,-1.3005,-1.3025,-1.3048,-1.3023,-1.3063,-1.3064,-1.3055,-1.3091,-1.3092,-1.3125,-1.3081,-1.3082,-1.3082,0,-1.2725,-1.2752,-1.2799,-1.2832,-1.2844,-1.2867,-1.2899,-1.2924,-1.2953,-1.2964,-1.2987,-1.2997,-1.303,-1.302,-1.3067,-1.305,-1.3067,-1.308,-1.3081,-1.3086,-1.3075,-1.3097,-1.3136,-1.3142,-1.309,-1.309,-1.3089,0,-1.2739,-1.2787,-1.2822,-1.2836,-1.2875,-1.2891,-1.2908,-1.2936,-1.2956,-1.2984,-1.2998,-1.303,-1.3048,-1.3073,-1.3092,-1.3083,-1.3138,-1.3129,-1.3148,-1.3148,-1.316,-1.3159,-1.3202,-1.317,-1.317,-1.3169,-1.3169,0,-1.2772,-1.2801,-1.2829,-1.285,-1.2883,-1.2901,-1.2934,-1.2952,-1.2977,-1.3003,-1.3014,-1.3039,-1.3062,-1.309,-1.3105,-1.3142,-1.315,-1.316,-1.3164,-1.316,-1.3159,-1.3172,-1.317,-1.3171,-1.3171,-1.317,-1.317,0,-1.2793,-1.2813,-1.2852,-1.2885,-1.2894,-1.2917,-1.2946,-1.2968,-1.2985,-1.3018,-1.3027,-1.3054,-1.3088,-1.3109,-1.3152,-1.3162,-1.3203,-1.3206,-1.3193,-1.3195,-1.3213,-1.3211,-1.3267,-1.3276,-1.3237,-1.3237,-1.3237,0,-1.2814,-1.2836,-1.2872,-1.289,-1.2907,-1.2935,-1.2955,-1.2974,-1.2995,-1.303,-1.3048,-1.3082,-1.311,-1.3164,-1.3188,-1.3221,-1.3225,-1.3243,-1.3231,-1.3226,-1.3227,-1.3226,-1.3228,-1.3245,-1.3245,-1.3246,-1.3246,0,-1.2848,-1.2857,-1.2884,-1.2916,-1.2939,-1.2965,-1.2991,-1.3005,-1.3029,-1.3051,-1.3085,-1.3107,-1.3151,-1.3185,-1.3221,-1.324,-1.3247,-1.3249,-1.3256,-1.3252,-1.3244,-1.3249,-1.3199,-1.3248,-1.3248,-1.3248,-1.3248,-1.3247,-1.287,-1.2891,-1.292,-1.295,-1.2972,-1.2996,-1.3018,-1.3038,-1.3066,-1.3103,-1.3113,-1.3149,-1.3179,-1.3227,-1.3247,-1.3276,-1.3274,-1.3283,-1.3285,-1.3287,-1.3288,-1.3238,-1.3282,-1.3282,-1.3282,-1.3282,-1.3282,0,-1.2906,-1.2925,-1.2953,-1.2989,-1.3013,-1.3017,-1.3046,-1.3067,-1.3098,-1.3125,-1.3153,-1.3192,-1.3226,-1.3253,-1.3288,-1.3306,-1.331,-1.3315,-1.3314,-1.3318,-1.3287,-1.3279,-1.331,-1.331,-1.331,-1.331,-1.331,-1.331,-1.2928,-1.2963,-1.2976,-1.3023,-1.3042,-1.3076,-1.3093,-1.3116,-1.3137,-1.3181,-1.3208,-1.3225,-1.3253,-1.329,-1.3321,-1.3328,-1.3341,-1.3345,-1.3353,-1.3323,-1.332,-1.3317,-1.3309,-1.3347,-1.3347,-1.3381,-1.3381,-1.3382]},{"header":{"parameterUnit":"m.s-1","parameterCategory":1,"la1":30.2991,"la2":30.254,"lo1":-89.0895,"lo2":-89.0444,"dy":0.0017,"dx":0.0017,"nx":28,"ny":28,"refTime":"2024-05-08T09:00:00:Z","depth":0,"parameterNumber":3,"parameterNumberName":"V-component_of_WINDS"},"data":[0,0,0,0,0,0,0,0,0,0,0,0,0,0,0,0,0,0,0,0,0,0,0,0,0,0,0,0,0,0,0,0,0,0,0,0,0,0,0,0,0,0,0,0,0,0,0,0,0,0,0,0,0,0,0,0,0,0,5.1446,5.1447,0,5.1558,5.1559,5.156,5.1539,5.1537,5.1535,5.1533,5.1647,5.1652,5.1657,0,0,0,0,0,0,0,0,0,0,0,0,0,5.1214,5.1218,5.1446,5.1447,5.1449,5.1557,5.1559,5.1561,5.1539,5.1537,5.1535,5.1532,5.1646,5.1651,5.1657,0,0,0,0,0,0,0,0,0,0,0,0,0,5.1319,5.1219,5.1446,5.1451,5.1453,5.1557,5.1559,5.1561,5.154,5.1537,5.1534,5.1531,5.1644,5.1651,5.1658,5.1764,0,0,5.1681,5.1684,0,0,0,0,0,0,0,0,5.1313,5.1327,5.1449,5.1451,5.1453,5.1531,5.1519,5.1629,5.1541,5.1507,5.1533,5.153,5.1611,5.1621,5.1648,5.1769,5.1774,5.1681,5.1686,5.1689,5.1691,0,0,0,0,0,0,0,5.1306,5.1322,5.149,5.1451,5.1453,5.1448,5.146,5.154,5.1574,5.151,5.1508,5.1522,5.1612,5.1641,5.1651,5.1776,5.1681,5.1688,5.1692,5.1695,5.1988,5.1992,0,0,0,0,0,0,5.1297,5.1317,5.1486,5.1493,5.1374,5.1455,5.1468,5.1509,5.1574,5.158,5.1524,5.152,5.163,5.1642,5.1655,5.1783,5.1689,5.1696,5.17,5.1985,5.1989,5.1993,0,0,0,0,0,0,5.1292,5.1312,5.1482,5.1405,5.1426,5.1462,5.1509,5.1513,5.1543,5.1585,5.1591,5.1548,5.1628,5.1645,5.1737,5.1786,5.1699,5.1706,5.1981,5.1986,5.1991,5.2039,0,0,0,0,0,0,5.1285,5.131,5.1351,5.1406,5.143,5.1562,5.1512,5.1517,5.1556,5.1552,5.1609,5.1616,5.1627,5.1726,5.1744,5.1795,5.1711,5.1977,5.1983,5.1989,5.2033,5.2045,5.2056,0,0,0,0,0,5.1277,5.136,5.1353,5.1374,5.1482,5.1565,5.1579,5.1591,5.156,5.1601,5.1628,5.1614,5.1778,5.1736,5.1756,5.181,5.1974,5.1981,5.1989,5.2028,5.2043,5.2055,0,0,0,0,0,0,5.131,5.1367,5.136,5.1464,5.151,5.1561,5.1614,5.1606,5.1662,5.1656,5.1668,5.1682,5.1775,5.1802,5.1753,5.1915,5.1871,5.1883,5.1895,5.1909,5.192,5.1911,5.1718,0,0,0,0,0,5.1329,5.1392,5.1439,5.1526,5.1549,5.1578,5.1614,5.162,5.1668,5.1687,5.1721,5.1768,5.183,5.1871,5.193,5.2037,5.2049,5.2084,5.2095,5.2104,5.2114,5.2173,5.2189,5.2018,5.2018,5.2017,0,0,5.137,5.1409,5.1448,5.1533,5.157,5.1635,5.1594,5.1664,5.1713,5.1698,5.1787,5.1813,5.1867,5.1967,5.2012,5.1992,5.2164,5.2114,5.2121,5.2126,5.2182,5.2198,5.2213,5.2023,5.2022,5.2021,0,0,5.1477,5.1513,5.1589,5.1626,5.1682,5.17,5.1718,5.1772,5.1788,5.1878,5.1868,5.1926,5.2033,5.2071,5.2105,5.2227,5.2216,5.2246,5.2304,5.2361,5.2374,5.2386,5.243,5.2445,5.2256,5.2256,5.2256,0,5.152,5.1618,5.1629,5.1701,5.1738,5.1728,5.1805,5.1841,5.1913,5.1939,5.1915,5.2049,5.2084,5.2193,5.2223,5.225,5.2272,5.2239,5.2371,5.2383,5.2395,5.2436,5.2453,5.2259,5.2259,5.2259,5.2258,0,5.1668,5.1736,5.1791,5.1861,5.1905,5.1979,5.2001,5.2045,5.2046,5.2067,5.2158,5.22,5.2268,5.2294,5.2297,5.2404,5.2389,5.2368,5.2324,5.2414,5.2453,5.2469,5.2264,5.2263,5.2262,5.2261,0,0,5.1799,5.1874,5.1894,5.1926,5.1987,5.2039,5.2113,5.218,5.2216,5.2266,5.2328,5.2419,5.24,5.2438,5.2445,5.2494,5.2588,5.2467,5.2469,5.2488,5.2709,5.2725,5.2743,5.2582,5.2585,5.2587,5.2705,0,5.1912,5.2042,5.2054,5.217,5.2233,5.2224,5.2288,5.2332,5.2354,5.241,5.2434,5.2498,5.2468,5.2491,5.254,5.2566,5.2633,5.2558,5.2639,5.2642,5.2626,5.2763,5.278,5.2889,5.272,5.2723,5.2724,0,5.206,5.2115,5.2238,5.229,5.2317,5.2374,5.2436,5.249,5.254,5.2552,5.2595,5.2594,5.267,5.2623,5.2728,5.2677,5.2711,5.2729,5.2733,5.2741,5.2689,5.2775,5.2924,5.294,5.2749,5.2747,5.2745,0,5.2144,5.2248,5.2335,5.2362,5.2425,5.2466,5.2493,5.254,5.258,5.2634,5.2659,5.2722,5.2756,5.2804,5.282,5.2785,5.2924,5.2879,5.2936,5.2936,5.2966,5.2964,5.3123,5.2988,5.2988,5.2987,5.2987,0,5.2268,5.2344,5.2373,5.2427,5.2511,5.2524,5.2607,5.2633,5.2675,5.2733,5.2729,5.2784,5.2802,5.286,5.2874,5.2958,5.2974,5.2985,5.2988,5.2986,5.2984,5.3008,5.3001,5.2992,5.2991,5.299,5.2989,0,5.2375,5.2398,5.2492,5.2544,5.2559,5.2619,5.2663,5.2714,5.2735,5.2809,5.2827,5.2859,5.2927,5.2948,5.303,5.3039,5.3138,5.3134,5.3121,5.3122,5.3178,5.3172,5.3357,5.3382,5.3231,5.3233,5.3234,0,5.2453,5.2511,5.2569,5.2608,5.2638,5.27,5.274,5.2756,5.2797,5.2858,5.2903,5.297,5.3025,5.3134,5.3164,5.3227,5.3225,5.3285,5.3234,5.323,5.3226,5.3222,5.3228,5.3295,5.3296,5.3298,5.3299,0,5.2589,5.2598,5.2656,5.2718,5.2766,5.2816,5.2864,5.2896,5.2918,5.2965,5.3035,5.3077,5.3161,5.3228,5.3291,5.332,5.3314,5.3314,5.3331,5.3329,5.332,5.3326,5.3148,5.331,5.3309,5.3308,5.3308,5.3307,5.2685,5.2736,5.2784,5.2849,5.2887,5.2932,5.2983,5.301,5.3068,5.3137,5.3143,5.3218,5.3266,5.3351,5.3383,5.3442,5.3425,5.3449,5.3455,5.346,5.3465,5.331,5.3454,5.3453,5.3453,5.3453,5.3453,0,5.282,5.2851,5.2911,5.2978,5.3029,5.3018,5.3071,5.3114,5.318,5.3226,5.328,5.3359,5.3424,5.346,5.3525,5.3565,5.3564,5.3582,5.3579,5.3586,5.3477,5.3456,5.3582,5.3582,5.3582,5.3582,5.3582,5.3582,5.2897,5.2983,5.2997,5.3102,5.3132,5.3206,5.3236,5.3278,5.3314,5.3404,5.3458,5.348,5.3522,5.359,5.3649,5.3658,5.3682,5.3702,5.3709,5.3607,5.3593,5.3581,5.3561,5.3707,5.3707,5.3813,5.3814,5.3815]}]]